Flag for U.S.A. Weather past 2 weeks in Missoula, Montana, U.S.A.

53 °F


Feels Like: 53 °F
Forecast: 41 / 80 °F
Wind: No wind

Location: Missoula International Airport

Current Time: Oct 8, 2015 at 11:32:40 PM

Latest Report: Oct 8, 2015 at 10:53 PM

Visibility: 10 mi

Pressure: 30.24 "Hg (26.92 "Hg at 971m altitude)

Humidity: 83%

Dew point: 48 °F

Location of MissoulaLocation

Historic Weather in Missoula — Graph


Missoula temperature yesterday

Maximum temperature yesterday: 64 °F (at 2:53 PM)
Minimum temperature yesterday: 44 °F (at 3:53 AM)
Average temperature yesterday: 53 °F

Past Weeks' High & Low Weather Summary

High88 °F (Sep 25, 5:53 PM)100% (Oct 7, 9:53 PM)30.34 "Hg (Oct 7, 9:53 PM)
Low30 °F (Sep 28, 7:53 AM)12% (Sep 25, 5:53 PM)29.83 "Hg (Sep 25, 5:53 PM)
Average54 °F51%30.07 "Hg
* Reported Sep 23 9:53 PM — Oct 8 9:53 PM, Missoula, Weather by CustomWeather, © 2015

Note: Actual official high and low records may vary slightly from our data, if they occured in-between our weather recording intervals... More about our weather records


Missoula weather history for previous 24 hours

Time TempWeatherWind HumidityBarometerVisibility
9:53 PM
Thu, Oct 8
58 °FClear.No wind75%30.23 "Hg10 mi
8:53 PM57 °FClear.3 mph81%30.25 "Hg10 mi
7:53 PM61 °FSunny.5 mph67%30.24 "Hg10 mi
6:53 PM64 °FPassing clouds.No wind61%30.24 "Hg10 mi
5:53 PM66 °FSunny.6 mph59%30.24 "Hg10 mi
4:53 PM67 °FSunny.5 mph57%30.26 "Hg10 mi
3:53 PM67 °FSunny.No wind57%30.26 "Hg10 mi
2:53 PM65 °FPassing clouds.5 mph63%30.27 "Hg10 mi
1:53 PM63 °FOvercast.No wind70%30.29 "Hg10 mi
12:53 PM60 °FMore clouds than sun.No wind80%30.32 "Hg10 mi
11:53 AM56 °FLow clouds.7 mph90%30.34 "Hg10 mi
10:53 AM54 °FOvercast.3 mph93%30.34 "Hg10 mi
10:04 AM54 °FMore clouds than sun.3 mph90%30.33 "Hg9 mi
9:53 AM53 °FOvercast.No wind96%30.34 "Hg8 mi
8:53 AM52 °FFog.No wind97%30.32 "Hg5 mi
7:55 AM51 °FFog.No wind96%30.31 "Hg5 mi
7:00 AM52 °FMostly cloudy.No wind97%30.30 "Hg9 mi
5:53 AM52 °FLow clouds.No wind97%30.28 "Hg10 mi
4:53 AM51 °FLow clouds.No wind100%30.27 "Hg7 mi
3:53 AM51 °FOvercast.No wind100%30.25 "Hg7 mi
2:53 AM51 °FLight rain. Fog.5 mph100%30.24 "Hg5 mi
1:53 AM52 °FOvercast.5 mph97%30.24 "Hg9 mi
12:53 AM51 °FLight rain. Fog.3 mph100%30.23 "Hg5 mi
11:53 PM
Wed, Oct 7
52 °FOvercast.3 mph100%30.22 "Hg9 mi
Weather by CustomWeather, © 2015

See weather overviewHow to use our weather pages